Date,TemperatureHighF,TemperatureAvgF,TemperatureLowF,DewpointHighF,DewpointAvgF,DewpointLowF,HumidityHigh,HumidityAvg,HumidityLow,PressureMaxIn,PressureMinIn,WindSpeedMaxMPH,WindSpeedAvgMPH,GustSpeedMaxMPH,PrecipitationSumIn
2012-1-1,47,35,27,-100,-100,-100,0,0,100,0.00,40.00,0,-999,0,0.00
2012-1-2,36,27,20,-100,-100,-100,0,0,100,0.00,40.00,0,-999,0,0.00
2012-1-3,51,34,21,-100,-100,-100,0,0,100,0.00,40.00,0,-999,0,0.00
2012-1-4,60,45,29,-100,-100,-100,0,0,100,0.00,40.00,0,-999,0,0.00
2012-1-5,73,47,30,-100,-100,-100,0,0,100,0.00,40.00,0,-999,0,0.00
2012-1-6,56,43,33,-100,-100,-100,0,0,100,0.00,40.00,0,-999,0,0.00
2012-1-7,51,35,24,-100,-100,-100,0,0,100,0.00,40.00,0,-999,0,0.00
2012-1-8,51,37,28,-100,-100,-100,0,0,100,0.00,40.00,0,-999,0,0.00
2012-1-9,56,41,29,-100,-100,-100,0,0,100,0.00,40.00,0,-999,0,0.00
2012-1-10,65,44,28,-100,-100,-100,0,0,100,0.00,40.00,0,-999,0,0.00
2012-1-11,41,32,23,-100,-100,-100,0,0,100,0.00,40.00,0,-999,0,0.00
2012-1-12,22,16,12,-100,-100,-100,0,0,100,0.00,40.00,0,-999,0,0.00
2012-1-13,33,20,7,-100,-100,-100,0,0,100,0.00,40.00,0,-999,0,0.00
2012-1-14,51,35,24,-100,-100,-100,0,0,100,0.00,40.00,0,-999,0,0.00
2012-1-15,61,41,32,-100,-100,-100,0,0,100,0.00,40.00,0,-999,0,0.00
2012-1-16,43,31,21,-100,-100,-100,0,0,100,0.00,40.00,0,-999,0,0.00
2012-1-17,25,21,16,-100,-100,-100,0,0,100,0.00,40.00,0,-999,0,0.00
2012-1-18,50,26,14,-100,-100,-100,0,0,100,0.00,40.00,0,-999,0,0.00
2012-1-19,15,11,6,-100,-100,-100,0,0,100,0.00,40.00,0,-999,0,0.00
2012-1-20,26,17,10,-100,-100,-100,0,0,100,0.00,40.00,0,-999,0,0.00
2012-1-21,29,18,9,-100,-100,-100,0,0,100,0.00,40.00,0,-999,0,0.00
2012-1-22,46,35,25,-100,-100,-100,0,0,100,0.00,40.00,0,-999,0,0.00
2012-1-23,34,29,17,-100,-100,-100,0,0,100,0.00,40.00,0,-999,0,0.00
2012-1-24,37,24,10,-100,-100,-100,0,0,100,0.00,40.00,0,-999,0,0.00
2012-1-25,40,33,25,-100,-100,-100,0,0,100,0.00,40.00,0,-999,0,0.00
2012-1-26,52,38,25,-100,-100,-100,0,0,100,0.00,40.00,0,-999,0,0.00
2012-1-27,43,34,25,-100,-100,-100,0,0,100,0.00,40.00,0,-999,0,0.00
2012-1-28,48,35,25,-100,-100,-100,0,0,100,0.00,40.00,0,-999,0,0.00
2012-1-29,48,33,19,-100,-100,-100,0,0,100,0.00,40.00,0,-999,0,0.00
2012-1-30,72,52,38,-100,-100,-100,0,0,100,0.00,40.00,0,-999,0,0.00
2012-1-31,62,45,26,-100,-100,-100,0,0,100,0.00,40.00,0,-999,0,0.00
2012-2-1,63,44,26,-100,-100,-100,0,0,100,0.00,40.00,0,-999,0,0.00
2012-2-2,57,40,25,-100,-100,-100,0,0,100,0.00,40.00,0,-999,0,0.00
2012-2-3,50,42,34,-100,-100,-100,0,0,100,0.00,40.00,0,-999,0,0.00
2012-2-4,34,32,29,-100,-100,-100,0,0,100,0.00,40.00,0,-999,0,0.00
2012-2-5,33,25,15,-100,-100,-100,0,0,100,0.00,40.00,0,-999,0,0.00
2012-2-6,40,26,10,-100,-100,-100,0,0,100,0.00,40.00,0,-999,0,0.00
2012-2-7,34,30,25,-100,-100,-100,0,0,100,0.00,40.00,0,-999,0,0.00
2012-2-8,32,25,21,-100,-100,-100,0,0,100,0.00,40.00,0,-999,0,0.00
2012-2-9,43,31,25,-100,-100,-100,0,0,100,0.00,40.00,0,-999,0,0.00
2012-2-10,29,17,4,-100,-100,-100,0,0,100,0.00,40.00,0,-999,0,0.00
2012-2-11,24,9,1,-100,-100,-100,0,0,100,0.00,40.00,0,-999,0,0.00
2012-2-12,36,16,-3,-100,-100,-100,0,0,100,0.00,40.00,0,-999,0,0.00
2012-2-13,36,30,22,-100,-100,-100,0,0,100,0.00,40.00,0,-999,0,0.00
2012-2-14,45,28,12,-100,-100,-100,0,0,100,0.00,40.00,0,-999,0,0.00
2012-2-15,43,34,20,-100,-100,-100,0,0,100,0.00,40.00,0,-999,0,0.00
2012-2-16,43,34,25,-100,-100,-100,0,0,100,0.00,40.00,0,-999,0,0.00
2012-2-17,47,36,28,-100,-100,-100,0,0,100,0.00,40.00,0,-999,0,0.00
2012-2-18,45,32,20,-100,-100,-100,0,0,100,0.00,40.00,0,-999,0,0.00
2012-2-19,47,36,28,-100,-100,-100,0,0,100,0.00,40.00,0,-999,0,0.00
2012-2-20,43,40,36,-100,-100,-100,0,0,100,0.00,40.00,0,-999,0,0.00
2012-2-21,47,38,32,-100,-100,-100,0,0,100,0.00,40.00,0,-999,0,0.00
2012-2-22,55,45,35,-100,-100,-100,0,0,100,0.00,40.00,0,-999,0,0.00
2012-2-23,50,42,32,-100,-100,-100,0,0,100,0.00,40.00,0,-999,0,0.00
2012-2-24,41,33,25,-100,-100,-100,0,0,100,0.00,40.00,0,-999,0,0.00
2012-2-25,37,29,21,-100,-100,-100,0,0,100,0.00,40.00,0,-999,0,0.00
2012-2-26,53,42,33,-100,-100,-100,0,0,100,0.00,40.00,0,-999,0,0.00
2012-2-27,39,30,20,-100,-100,-100,0,0,100,0.00,40.00,0,-999,0,0.00
2012-2-28,58,43,36,-100,-100,-100,0,0,100,0.00,40.00,0,-999,0,0.00
2012-2-29,51,35,32,-100,-100,-100,0,0,100,0.00,40.00,0,-999,0,0.00
2012-3-1,47,36,28,-100,-100,-100,0,0,100,0.00,40.00,0,-999,0,0.00
2012-3-2,48,38,32,-100,-100,-100,0,0,100,0.00,40.00,0,-999,0,0.00
2012-3-3,43,34,25,-100,-100,-100,0,0,100,0.00,40.00,0,-999,0,0.00
2012-3-4,53,37,28,-100,-100,-100,0,0,100,0.00,40.00,0,-999,0,0.00
2012-3-5,58,38,22,-100,-100,-100,0,0,100,0.00,40.00,0,-999,0,0.00
2012-3-6,73,59,48,-100,-100,-100,0,0,100,0.00,40.00,0,-999,0,0.00
2012-3-7,61,47,36,-100,-100,-100,0,0,100,0.00,40.00,0,-999,0,0.00
2012-3-8,54,40,25,-100,-100,-100,0,0,100,0.00,40.00,0,-999,0,0.00
2012-3-9,71,45,25,-100,-100,-100,0,0,100,0.00,40.00,0,-999,0,0.00
2012-3-10,76,58,43,-100,-100,-100,0,0,100,0.00,40.00,0,-999,0,0.00
2012-3-11,54,48,45,-100,-100,-100,0,0,100,0.00,40.00,0,-999,0,0.00
2012-3-12,72,54,43,-100,-100,-100,0,0,100,0.00,40.00,0,-999,0,0.00
2012-3-13,82,60,40,-100,-100,-100,0,0,100,0.00,40.00,0,-999,0,0.00
2012-3-14,83,67,55,-100,-100,-100,0,0,100,0.00,40.00,0,-999,0,0.00
2012-3-15,78,60,44,-100,-100,-100,0,0,100,0.00,40.00,0,-999,0,0.00
2012-3-16,80,65,47,-100,-100,-100,0,0,100,0.00,40.00,0,-999,0,0.00
2012-3-17,83,71,63,-100,-100,-100,0,0,100,0.00,40.00,0,-999,0,0.00
2012-3-18,89,72,65,-100,-100,-100,0,0,100,0.00,40.00,0,-999,0,0.00
2012-3-19,73,65,57,-100,-100,-100,0,0,100,0.00,40.00,0,-999,0,0.00
2012-3-20,62,56,54,-100,-100,-100,0,0,100,0.00,40.00,0,-999,0,0.00
2012-3-21,63,58,54,-100,-100,-100,0,0,100,0.00,40.00,0,-999,0,0.00
2012-3-22,66,60,53,-100,-100,-100,0,0,100,0.00,40.00,0,-999,0,0.00
2012-3-23,72,59,45,-100,-100,-100,0,0,100,0.00,40.00,0,-999,0,0.00
2012-3-24,81,63,42,-100,-100,-100,0,0,100,0.00,40.00,0,-999,0,0.00
2012-3-25,81,64,47,-100,-100,-100,0,0,100,0.00,40.00,0,-999,0,0.00
2012-3-26,89,71,61,-100,-100,-100,0,0,100,0.00,40.00,0,-999,0,0.00
2012-3-27,79,72,63,-100,-100,-100,0,0,100,0.00,40.00,0,-999,0,0.00
2012-3-28,76,61,43,-100,-100,-100,0,0,100,0.00,40.00,0,-999,0,0.00
2012-3-29,66,63,59,-100,-100,-100,0,0,100,0.00,40.00,0,-999,0,0.00
2012-3-30,87,64,51,-100,-100,-100,0,0,100,0.00,40.00,0,-999,0,0.00
2012-3-31,94,73,55,-100,-100,-100,0,0,100,0.00,40.00,0,-999,0,0.00
2012-4-1,91,74,61,-100,-100,-100,0,0,100,0.00,40.00,0,-999,0,0.00
2012-4-2,92,75,65,-100,-100,-100,0,0,100,0.00,40.00,0,-999,0,0.00
2012-4-3,65,57,51,-100,-100,-100,0,0,100,0.00,40.00,0,-999,0,0.00
2012-4-4,63,59,55,-100,-100,-100,0,0,100,0.00,40.00,0,-999,0,0.00
2012-4-5,67,59,51,-100,-100,-100,0,0,100,0.00,40.00,0,-999,0,0.00
2012-4-6,66,57,43,-100,-100,-100,0,0,100,0.00,40.00,0,-999,0,0.00
2012-4-7,64,58,51,-100,-100,-100,0,0,100,0.00,40.00,0,-999,0,0.00
2012-4-8,73,56,32,-100,-100,-100,0,0,100,0.00,40.00,0,-999,0,0.00
2012-4-9,69,54,34,-100,-100,-100,0,0,100,0.00,40.00,0,-999,0,0.00
2012-4-10,62,47,33,-100,-100,-100,0,0,100,0.00,40.00,0,-999,0,0.00
2012-4-11,58,46,31,-100,-100,-100,0,0,100,0.00,40.00,0,-999,0,0.00
2012-4-12,52,50,47,-100,-100,-100,0,0,100,0.00,40.00,0,-999,0,0.00
2012-4-13,73,61,49,-100,-100,-100,0,0,100,0.00,40.00,0,-999,0,0.00
2012-4-14,64,57,47,-100,-100,-100,0,0,100,0.00,40.00,0,-999,0,0.00
2012-4-15,69,61,48,-100,-100,-100,0,0,100,0.00,40.00,0,-999,0,0.00
2012-4-16,62,52,45,-100,-100,-100,0,0,100,0.00,40.00,0,-999,0,0.00
2012-4-17,74,57,45,-100,-100,-100,0,0,100,0.00,40.00,0,-999,0,0.00
2012-4-18,78,64,57,-100,-100,-100,0,0,100,0.00,40.00,0,-999,0,0.00
2012-4-19,61,52,45,-100,-100,-100,0,0,100,0.00,40.00,0,-999,0,0.00
2012-4-20,60,49,38,-100,-100,-100,0,0,100,0.00,40.00,0,-999,0,0.00
2012-4-21,77,56,45,-100,-100,-100,0,0,100,0.00,40.00,0,-999,0,0.00
2012-4-22,64,53,44,-100,-100,-100,0,0,100,0.00,40.00,0,-999,0,0.00
2012-4-23,74,58,35,-100,-100,-100,0,0,100,0.00,40.00,0,-999,0,0.00
2012-4-24,87,70,54,-100,-100,-100,0,0,100,0.00,40.00,0,-999,0,0.00
2012-4-25,92,76,62,-100,-100,-100,0,0,100,0.00,40.00,0,-999,0,0.00
2012-4-26,76,66,55,-100,-100,-100,0,0,100,0.00,40.00,0,-999,0,0.00
2012-4-27,68,56,47,-100,-100,-100,0,0,100,0.00,40.00,0,-999,0,0.00
2012-4-28,62,52,44,-100,-100,-100,0,0,100,0.00,40.00,0,-999,0,0.00
2012-4-29,55,51,48,-100,-100,-100,0,0,100,0.00,40.00,0,-999,0,0.00
2012-4-30,72,61,50,-100,-100,-100,0,0,100,0.00,40.00,0,-999,0,0.00
2012-5-1,84,72,61,-100,-100,-100,0,0,100,0.00,40.00,0,-999,0,0.00
2012-5-2,84,73,62,-100,-100,-100,0,0,100,0.00,40.00,0,-999,0,0.00
2012-5-3,87,74,64,-100,-100,-100,0,0,100,0.00,40.00,0,-999,0,0.00
2012-5-4,92,76,67,-100,-100,-100,0,0,100,0.00,40.00,0,-999,0,0.00
2012-5-5,92,80,71,-100,-100,-100,0,0,100,0.00,40.00,0,-999,0,0.00
2012-5-6,80,68,62,-100,-100,-100,0,0,100,0.00,40.00,0,-999,0,0.00
2012-5-7,68,61,51,-100,-100,-100,0,0,100,0.00,40.00,0,-999,0,0.00
2012-5-8,68,57,49,-100,-100,-100,0,0,100,0.00,40.00,0,-999,0,0.00
2012-5-9,76,58,44,-100,-100,-100,0,0,100,0.00,40.00,0,-999,0,0.00
2012-5-10,87,71,56,-100,-100,-100,0,0,100,0.00,40.00,0,-999,0,0.00
2012-5-11,76,66,54,-100,-100,-100,0,0,100,0.00,40.00,0,-999,0,0.00
2012-5-12,70,60,51,-100,-100,-100,0,0,100,0.00,40.00,0,-999,0,0.00
2012-5-13,77,67,54,-100,-100,-100,0,0,100,0.00,40.00,0,-999,0,0.00
2012-5-14,84,70,51,-100,-100,-100,0,0,100,0.00,40.00,0,-999,0,0.00
2012-5-15,84,73,61,-100,-100,-100,0,0,100,0.00,40.00,0,-999,0,0.00
2012-5-16,84,67,49,-100,-100,-100,0,0,100,0.00,40.00,0,-999,0,0.00
2012-5-17,97,76,62,-100,-100,-100,0,0,100,0.00,40.00,0,-999,0,0.00
2012-5-18,91,80,69,-100,-100,-100,0,0,100,0.00,40.00,0,-999,0,0.00
2012-5-19,90,75,62,-100,-100,-100,0,0,100,0.00,40.00,0,-999,0,0.00
2012-5-20,72,64,58,-100,-100,-100,0,0,100,0.00,40.00,0,-999,0,0.00
2012-5-21,79,68,51,-100,-100,-100,0,0,100,0.00,40.00,0,-999,0,0.00
2012-5-22,87,74,60,-100,-100,-100,0,0,100,0.00,40.00,0,-999,0,0.00
2012-5-23,97,76,67,-100,-100,-100,0,0,100,0.00,40.00,0,-999,0,0.00
2012-5-24,71,65,59,-100,-100,-100,0,0,100,0.00,40.00,0,-999,0,0.00
2012-5-25,69,62,58,-100,-100,-100,0,0,100,0.00,40.00,0,-999,0,0.00
2012-5-26,95,78,63,-100,-100,-100,0,0,100,0.00,40.00,0,-999,0,0.00
2012-5-27,93,83,71,-100,-100,-100,0,0,100,0.00,40.00,0,-999,0,0.00
2012-5-28,79,72,65,-100,-100,-100,0,0,100,0.00,40.00,0,-999,0,0.00
2012-5-29,76,66,56,-100,-100,-100,0,0,100,0.00,40.00,0,-999,0,0.00
2012-5-30,65,60,51,-100,-100,-100,0,0,100,0.00,40.00,0,-999,0,0.00
2012-5-31,63,56,52,-100,-100,-100,0,0,100,0.00,40.00,0,-999,0,0.00
2012-6-1,67,58,47,-100,-100,-100,0,0,100,0.00,40.00,0,-999,0,0.00
2012-6-2,83,68,55,-100,-100,-100,0,0,100,0.00,40.00,0,-999,0,0.00
2012-6-3,93,79,64,-100,-100,-100,0,0,100,0.00,40.00,0,-999,0,0.00
2012-6-4,88,78,67,-100,-100,-100,0,0,100,0.00,40.00,0,-999,0,0.00
2012-6-5,93,78,62,-100,-100,-100,0,0,100,0.00,40.00,0,-999,0,0.00
2012-6-6,91,77,65,-100,-100,-100,0,0,100,0.00,40.00,0,-999,0,0.00
2012-6-7,87,77,68,-100,-100,-100,0,0,100,0.00,40.00,0,-999,0,0.00
2012-6-8,87,78,65,-100,-100,-100,0,0,100,0.00,40.00,0,-999,0,0.00
2012-6-9,90,80,67,-100,-100,-100,0,0,100,0.00,40.00,0,-999,0,0.00
2012-6-10,87,79,70,-100,-100,-100,0,0,100,0.00,40.00,0,-999,0,0.00
2012-6-11,84,73,54,-100,-100,-100,0,0,100,0.00,40.00,0,-999,0,0.00
2012-6-12,80,67,54,-100,-100,-100,0,0,100,0.00,40.00,0,-999,0,0.00
2012-6-13,86,74,65,-100,-100,-100,0,0,100,0.00,40.00,0,-999,0,0.00
2012-6-14,90,77,67,-100,-100,-100,0,0,100,0.00,40.00,0,-999,0,0.00
2012-6-15,76,69,65,-100,-100,-100,0,0,100,0.00,40.00,0,-999,0,0.00
2012-6-16,80,67,62,-100,-100,-100,0,0,100,0.00,40.00,0,-999,0,0.00
2012-6-17,90,78,65,-100,-100,-100,0,0,100,0.00,40.00,0,-999,0,0.00
2012-6-18,93,84,77,-100,-100,-100,0,0,100,0.00,40.00,0,-999,0,0.00
2012-6-19,89,83,76,-100,-100,-100,0,0,100,0.00,40.00,0,-999,0,0.00
2012-6-20,82,71,63,-100,-100,-100,0,0,100,0.00,40.00,0,-999,0,0.00
2012-6-21,81,71,60,-100,-100,-100,0,0,100,0.00,40.00,0,-999,0,0.00
2012-6-22,83,74,63,-100,-100,-100,0,0,100,0.00,40.00,0,-999,0,0.00
2012-6-23,89,75,65,-100,-100,-100,0,0,100,0.00,40.00,0,-999,0,0.00
2012-6-24,89,81,73,-100,-100,-100,0,0,100,0.00,40.00,0,-999,0,0.00
2012-6-25,85,79,73,-100,-100,-100,0,0,100,0.00,40.00,0,-999,0,0.00
2012-6-26,87,78,70,-100,-100,-100,0,0,100,0.00,40.00,0,-999,0,0.00
2012-6-27,98,88,77,-100,-100,-100,0,0,100,0.00,40.00,0,-999,0,0.00
2012-6-28,91,84,78,-100,-100,-100,0,0,100,0.00,40.00,0,-999,0,0.00
2012-6-29,90,83,76,-100,-100,-100,0,0,100,0.00,40.00,0,-999,0,0.00
2012-6-30,91,82,71,-100,-100,-100,0,0,100,0.00,40.00,0,-999,0,0.00
2012-7-1,91,82,72,-100,-100,-100,0,0,100,0.00,40.00,0,-999,0,0.00
2012-7-2,98,86,76,-100,-100,-100,0,0,100,0.00,40.00,0,-999,0,0.00
2012-7-3,97,87,77,-100,-100,-100,0,0,100,0.00,40.00,0,-999,0,0.00
2012-7-4,94,87,79,-100,-100,-100,0,0,100,0.00,40.00,0,-999,0,0.00
2012-7-5,97,88,77,-100,-100,-100,0,0,100,0.00,40.00,0,-999,0,0.00
2012-7-6,98,89,80,-100,-100,-100,0,0,100,0.00,40.00,0,-999,0,0.00
2012-7-7,89,80,73,-100,-100,-100,0,0,100,0.00,40.00,0,-999,0,0.00
2012-7-8,86,79,72,-100,-100,-100,0,0,100,0.00,40.00,0,-999,0,0.00
2012-7-9,90,80,69,-100,-100,-100,0,0,100,0.00,40.00,0,-999,0,0.00
2012-7-10,85,76,65,-100,-100,-100,0,0,100,0.00,40.00,0,-999,0,0.00
2012-7-11,91,78,64,-100,-100,-100,0,0,100,0.00,40.00,0,-999,0,0.00
2012-7-12,93,80,66,-100,-100,-100,0,0,100,0.00,40.00,0,-999,0,0.00
2012-7-13,97,83,73,-100,-100,-100,0,0,100,0.00,40.00,0,-999,0,0.00
2012-7-14,94,83,73,-100,-100,-100,0,0,100,0.00,40.00,0,-999,0,0.00
2012-7-15,95,86,72,-100,-100,-100,0,0,100,0.00,40.00,0,-999,0,0.00
2012-7-16,93,85,75,-100,-100,-100,0,0,100,0.00,40.00,0,-999,0,0.00
2012-7-17,98,87,77,-100,-100,-100,0,0,100,0.00,40.00,0,-999,0,0.00
2012-7-18,99,88,77,-100,-100,-100,0,0,100,0.00,40.00,0,-999,0,0.00
2012-7-19,98,87,73,-100,-100,-100,0,0,100,0.00,40.00,0,-999,0,0.00
2012-7-20,95,85,76,-100,-100,-100,0,0,100,0.00,40.00,0,-999,0,0.00
2012-7-21,95,85,75,-100,-100,-100,0,0,100,0.00,40.00,0,-999,0,0.00
2012-7-22,99,85,73,-100,-100,-100,0,0,100,0.00,40.00,0,-999,0,0.00
2012-7-23,101,88,74,-100,-100,-100,0,0,100,0.00,40.00,0,-999,0,0.00
2012-7-24,99,89,77,-100,-100,-100,0,0,100,0.00,40.00,0,-999,0,0.00
2012-7-25,102,89,79,-100,-100,-100,0,0,100,0.00,40.00,0,-999,0,0.00
2012-7-26,97,84,73,-100,-100,-100,0,0,100,0.00,40.00,0,-999,0,0.00
2012-7-27,87,76,63,-100,-100,-100,0,0,100,0.00,40.00,0,-999,0,0.00
2012-7-28,87,79,67,-100,-100,-100,0,0,100,0.00,40.00,0,-999,0,0.00
2012-7-29,98,85,73,-100,-100,-100,0,0,100,0.00,40.00,0,-999,0,0.00
2012-7-30,98,84,74,-100,-100,-100,0,0,100,0.00,40.00,0,-999,0,0.00
2012-7-31,99,84,68,-100,-100,-100,0,0,100,0.00,40.00,0,-999,0,0.00
2012-8-1,101,87,75,-100,-100,-100,0,0,100,0.00,40.00,0,-999,0,0.00
2012-8-2,94,82,73,-100,-100,-100,0,0,100,0.00,40.00,0,-999,0,0.00
2012-8-3,95,85,73,-100,-100,-100,0,0,100,0.00,40.00,0,-999,0,0.00
2012-8-4,87,76,61,-100,-100,-100,0,0,100,0.00,40.00,0,-999,0,0.00
2012-8-5,87,74,61,-100,-100,-100,0,0,100,0.00,40.00,0,-999,0,0.00
2012-8-6,95,80,66,-100,-100,-100,0,0,100,0.00,40.00,0,-999,0,0.00
2012-8-7,102,83,69,-100,-100,-100,0,0,100,0.00,40.00,0,-999,0,0.00
2012-8-8,95,78,69,-100,-100,-100,0,0,100,0.00,40.00,0,-999,0,0.00
2012-8-9,86,75,64,-100,-100,-100,0,0,100,0.00,40.00,0,-999,0,0.00
2012-8-10,79,69,58,-100,-100,-100,0,0,100,0.00,40.00,0,-999,0,0.00
2012-8-11,82,69,56,-100,-100,-100,0,0,100,0.00,40.00,0,-999,0,0.00
2012-8-12,82,73,66,-100,-100,-100,0,0,100,0.00,40.00,0,-999,0,0.00
2012-8-13,83,69,62,-100,-100,-100,0,0,100,0.00,40.00,0,-999,0,0.00
2012-8-14,85,72,55,-100,-100,-100,0,0,100,0.00,40.00,0,-999,0,0.00
2012-8-15,91,76,62,-100,-100,-100,0,0,100,0.00,40.00,0,-999,0,0.00
2012-8-16,76,70,65,-100,-100,-100,0,0,100,0.00,40.00,0,-999,0,0.00
2012-8-17,80,66,50,-100,-100,-100,0,0,100,0.00,40.00,0,-999,0,0.00
2012-8-18,69,62,54,-100,-100,-100,0,0,100,0.00,40.00,0,-999,0,0.00
2012-8-19,81,66,51,-100,-100,-100,0,0,100,0.00,40.00,0,-999,0,0.00
2012-8-20,88,72,55,-100,-100,-100,0,0,100,0.00,40.00,0,-999,0,0.00
2012-8-21,93,70,56,-100,-100,-100,0,0,100,0.00,40.00,0,-999,0,0.00
2012-8-22,92,78,62,-100,-100,-100,0,0,100,0.00,40.00,0,-999,0,0.00
2012-8-23,94,81,72,-100,-100,-100,0,0,100,0.00,40.00,0,-999,0,0.00
2012-8-24,79,74,69,-100,-100,-100,0,0,100,0.00,40.00,0,-999,0,0.00
2012-8-25,76,72,67,-100,-100,-100,0,0,100,0.00,40.00,0,-999,0,0.00
2012-8-26,83,75,69,-100,-100,-100,0,0,100,0.00,40.00,0,-999,0,0.00
2012-8-27,92,77,61,-100,-100,-100,0,0,100,0.00,40.00,0,-999,0,0.00
2012-8-28,102,81,70,-100,-100,-100,0,0,100,0.00,40.00,0,-999,0,0.00
2012-8-29,94,83,70,-100,-100,-100,0,0,100,0.00,40.00,0,-999,0,0.00
2012-8-30,101,86,72,-100,-100,-100,0,0,100,0.00,40.00,0,-999,0,0.00
2012-8-31,95,79,62,-100,-100,-100,0,0,100,0.00,40.00,0,-999,0,0.00
2012-9-1,93,81,69,-100,-100,-100,0,0,100,0.00,40.00,0,-999,0,0.00
2012-9-2,97,83,69,-100,-100,-100,0,0,100,0.00,40.00,0,-999,0,0.00
2012-9-3,87,80,72,-100,-100,-100,0,0,100,0.00,40.00,0,-999,0,0.00
2012-9-4,91,78,70,-100,-100,-100,0,0,100,0.00,40.00,0,-999,0,0.00
2012-9-5,86,77,65,-100,-100,-100,0,0,100,0.00,40.00,0,-999,0,0.00
2012-9-6,91,73,51,-100,-100,-100,0,0,100,0.00,40.00,0,-999,0,0.00
2012-9-7,79,68,58,-100,-100,-100,0,0,100,0.00,40.00,0,-999,0,0.00
2012-9-8,87,67,50,-100,-100,-100,0,0,100,0.00,40.00,0,-999,0,0.00
2012-9-9,77,65,50,-100,-100,-100,0,0,100,0.00,40.00,0,-999,0,0.00
2012-9-10,89,72,57,-100,-100,-100,0,0,100,0.00,40.00,0,-999,0,0.00
2012-9-11,97,79,64,-100,-100,-100,0,0,100,0.00,40.00,0,-999,0,0.00
2012-9-12,80,68,56,-100,-100,-100,0,0,100,0.00,40.00,0,-999,0,0.00
2012-9-13,73,63,55,-100,-100,-100,0,0,100,0.00,40.00,0,-999,0,0.00
2012-9-14,85,68,51,-100,-100,-100,0,0,100,0.00,40.00,0,-999,0,0.00
2012-9-15,79,66,52,-100,-100,-100,0,0,100,0.00,40.00,0,-999,0,0.00
2012-9-16,83,68,59,-100,-100,-100,0,0,100,0.00,40.00,0,-999,0,0.00
2012-9-17,73,63,55,-100,-100,-100,0,0,100,0.00,40.00,0,-999,0,0.00
2012-9-18,75,54,40,-100,-100,-100,0,0,100,0.00,40.00,0,-999,0,0.00
2012-10-3,76,61,52,-100,-100,-100,0,0,100,0.00,40.00,0,-999,0,0.00
2012-10-4,61,53,46,-100,-100,-100,0,0,100,0.00,40.00,0,-999,0,0.00
2012-10-5,54,43,36,-100,-100,-100,0,0,100,0.00,40.00,0,-999,0,0.00
2012-10-6,49,40,29,-100,-100,-100,0,0,100,0.00,40.00,0,-999,0,0.00
2012-10-7,59,42,24,-100,-100,-100,0,0,100,0.00,40.00,0,-999,0,0.00
2012-10-8,80,57,42,-100,-100,-100,0,0,100,0.00,40.00,0,-999,0,0.00
2012-10-9,63,52,42,-100,-100,-100,0,0,100,0.00,40.00,0,-999,0,0.00
2012-10-10,68,47,26,-100,-100,-100,0,0,100,0.00,40.00,0,-999,0,0.00
2012-10-11,67,53,43,-100,-100,-100,0,0,100,0.00,40.00,0,-999,0,0.00
2012-10-12,56,46,30,-100,-100,-100,0,0,100,0.00,40.00,0,-999,0,0.00
2012-10-13,76,63,53,-100,-100,-100,0,0,100,0.00,40.00,0,-999,0,0.00
2012-10-14,68,60,49,-100,-100,-100,0,0,100,0.00,40.00,0,-999,0,0.00
2012-10-15,76,59,41,-100,-100,-100,0,0,100,0.00,40.00,0,-999,0,0.00
2012-10-16,80,66,54,-100,-100,-100,0,0,100,0.00,40.00,0,-999,0,0.00
2012-10-17,68,61,53,-100,-100,-100,0,0,100,0.00,40.00,0,-999,0,0.00
2012-10-18,53,50,45,-100,-100,-100,0,0,100,0.00,40.00,0,-999,0,0.00
2012-10-19,51,47,43,-100,-100,-100,0,0,100,0.00,40.00,0,-999,0,0.00
2012-10-20,67,52,35,-100,-100,-100,0,0,100,0.00,40.00,0,-999,0,0.00
2012-10-21,80,64,51,-100,-100,-100,0,0,100,0.00,40.00,0,-999,0,0.00
2012-10-22,65,59,54,-100,-100,-100,0,0,100,0.00,40.00,0,-999,0,0.00
2012-10-23,73,61,55,-100,-100,-100,0,0,100,0.00,40.00,0,-999,0,0.00
2012-10-24,58,54,47,-100,-100,-100,0,0,100,0.00,40.00,0,-999,0,0.00
2012-10-25,48,40,36,-100,-100,-100,0,0,100,0.00,40.00,0,-999,0,0.00
2012-10-26,47,38,32,-100,-100,-100,0,0,100,0.00,40.00,0,-999,0,0.00
2012-10-27,48,38,29,-100,-100,-100,0,0,100,0.00,40.00,0,-999,0,0.00
2012-10-28,58,47,37,-100,-100,-100,0,0,100,0.00,40.00,0,-999,0,0.00
2012-10-29,61,50,43,-100,-100,-100,0,0,100,0.00,40.00,0,-999,0,0.00
2012-10-30,56,46,40,-100,-100,-100,0,0,100,0.00,40.00,0,-999,0,0.00
2012-10-31,65,47,33,-100,-100,-100,0,0,100,0.00,40.00,0,-999,0,0.00
2012-11-1,54,47,37,-100,-100,-100,0,0,100,0.00,40.00,0,-999,0,0.00
2012-11-2,58,44,36,-100,-100,-100,0,0,100,0.00,40.00,0,-999,0,0.00
2012-11-3,56,43,31,-100,-100,-100,0,0,100,0.00,40.00,0,-999,0,0.00
2012-11-4,62,50,40,-100,-100,-100,0,0,100,0.00,40.00,0,-999,0,0.00
2012-11-5,47,43,41,-100,-100,-100,0,0,100,0.00,40.00,0,-999,0,0.00
2012-11-6,58,47,40,-100,-100,-100,0,0,100,0.00,40.00,0,-999,0,0.00
2012-11-7,56,45,33,-100,-100,-100,0,0,100,0.00,40.00,0,-999,0,0.00
2012-11-8,68,52,42,-100,-100,-100,0,0,100,0.00,40.00,0,-999,0,0.00
2012-11-9,64,49,37,-100,-100,-100,0,0,100,0.00,40.00,0,-999,0,0.00
2012-11-10,79,68,54,-100,-100,-100,0,0,100,0.00,40.00,0,-999,0,0.00
2012-11-11,69,32,26,-100,-100,-100,0,0,100,0.00,40.00,0,-999,0,0.00
2012-11-12,41,33,26,-100,-100,-100,0,0,100,0.00,40.00,0,-999,0,0.00
2012-11-13,57,40,25,-100,-100,-100,0,0,100,0.00,40.00,0,-999,0,0.00
2012-11-14,59,47,36,-100,-100,-100,0,0,100,0.00,40.00,0,-999,0,0.00
2012-11-15,65,47,39,-100,-100,-100,0,0,100,0.00,40.00,0,-999,0,0.00
2012-11-16,62,43,30,-100,-100,-100,0,0,100,0.00,40.00,0,-999,0,0.00
2012-11-17,63,52,42,-100,-100,-100,0,0,100,0.00,40.00,0,-999,0,0.00
2012-11-18,62,53,43,-100,-100,-100,0,0,100,0.00,40.00,0,-999,0,0.00
2012-11-19,62,51,40,-100,-100,-100,0,0,100,0.00,40.00,0,-999,0,0.00
2012-11-20,63,48,32,-100,-100,-100,0,0,100,0.00,40.00,0,-999,0,0.00
2012-11-21,73,60,45,-100,-100,-100,0,0,100,0.00,40.00,0,-999,0,0.00
2012-11-22,61,54,40,-100,-100,-100,0,0,100,0.00,40.00,0,-999,0,0.00
2012-11-23,41,31,21,-100,-100,-100,0,0,100,0.00,40.00,0,-999,0,0.00
2012-11-24,49,35,20,-100,-100,-100,0,0,100,0.00,40.00,0,-999,0,0.00
2012-11-25,44,40,36,-100,-100,-100,0,0,100,0.00,40.00,0,-999,0,0.00
2012-11-26,38,34,21,-100,-100,-100,0,0,100,0.00,40.00,0,-999,0,0.00
2012-11-27,44,30,18,-100,-100,-100,0,0,100,0.00,40.00,0,-999,0,0.00
2012-11-28,49,38,22,-100,-100,-100,0,0,100,0.00,40.00,0,-999,0,0.00
2012-11-29,57,44,29,-100,-100,-100,0,0,100,0.00,40.00,0,-999,0,0.00
2012-11-30,47,39,30,-100,-100,-100,0,0,100,0.00,40.00,0,-999,0,0.00
2012-12-1,56,47,34,-100,-100,-100,0,0,100,0.00,40.00,0,-999,0,0.00
2012-12-2,63,46,31,-100,-100,-100,0,0,100,0.00,40.00,0,-999,0,0.00
2012-12-3,62,52,40,-100,-100,-100,0,0,100,0.00,40.00,0,-999,0,0.00
2012-12-4,62,42,28,-100,-100,-100,0,0,100,0.00,40.00,0,-999,0,0.00
2012-12-5,62,46,33,-100,-100,-100,0,0,100,0.00,40.00,0,-999,0,0.00
2012-12-6,57,48,42,-100,-100,-100,0,0,100,0.00,40.00,0,-999,0,0.00
2012-12-7,43,38,32,-100,-100,-100,0,0,100,0.00,40.00,0,-999,0,0.00
2012-12-8,40,35,33,-100,-100,-100,0,0,100,0.00,40.00,0,-999,0,0.00
2012-12-9,39,31,18,-100,-100,-100,0,0,100,0.00,40.00,0,-999,0,0.00
2012-12-10,32,26,7,-100,-100,-100,0,0,100,0.00,40.00,0,-999,0,0.00
2012-12-11,46,33,24,-100,-100,-100,0,0,100,0.00,40.00,0,-999,0,0.00
2012-12-12,54,41,31,-100,-100,-100,0,0,100,0.00,40.00,0,-999,0,0.00
2012-12-13,53,41,32,-100,-100,-100,0,0,100,0.00,40.00,0,-999,0,0.00
2012-12-14,57,41,22,-100,-100,-100,0,0,100,0.00,40.00,0,-999,0,0.00
2012-12-15,48,42,35,-100,-100,-100,0,0,100,0.00,40.00,0,-999,0,0.00
2012-12-16,36,33,30,-100,-100,-100,0,0,100,0.00,40.00,0,-999,0,0.00
2012-12-17,32,30,28,-100,-100,-100,0,0,100,0.00,40.00,0,-999,0,0.00
2012-12-18,45,36,30,-100,-100,-100,0,0,100,0.00,40.00,0,-999,0,0.00
2012-12-19,37,34,31,-100,-100,-100,0,0,100,0.00,40.00,0,-999,0,0.00
2012-12-20,32,24,19,-100,-100,-100,0,0,100,0.00,40.00,0,-999,0,0.00
2012-12-21,29,20,12,-100,-100,-100,0,0,100,0.00,40.00,0,-999,0,0.00
2012-12-22,38,26,21,-100,-100,-100,0,0,100,0.00,40.00,0,-999,0,0.00
2012-12-23,23,18,11,-100,-100,-100,0,0,100,0.00,40.00,0,-999,0,0.00
2012-12-24,24,17,10,-100,-100,-100,0,0,100,0.00,40.00,0,-999,0,0.00
2012-12-25,24,12,7,-100,-100,-100,0,0,100,0.00,40.00,0,-999,0,0.00
2012-12-26,20,11,3,-100,-100,-100,0,0,100,0.00,40.00,0,-999,0,0.00
2012-12-27,25,20,10,-100,-100,-100,0,0,100,0.00,40.00,0,-999,0,0.00
2012-12-28,29,21,17,-100,-100,-100,0,0,100,0.00,40.00,0,-999,0,0.00
2012-12-29,30,18,7,-100,-100,-100,0,0,100,0.00,40.00,0,-999,0,0.00
2012-12-30,41,27,15,-100,-100,-100,0,0,100,0.00,40.00,0,-999,0,0.00
2012-12-31,25,22,21,-100,-100,-100,0,0,100,0.00,40.00,0,-999,0,0.00
2013-1-1,24,17,6,-100,-100,-100,0,0,100,0.00,40.00,0,-999,0,0.00